Flag for Germany Weather past 2 weeks in Lohmar, North Rhine-Westphalia, Germany

Now
45 °F

Sprinkles. Partly sunny.


Feels Like: 36 °F
Forecast: 41 / 47 °F
Wind: 21 mph from West

Location: Koeln / Bonn

Current Time: Dec 20, 2014 at 5:04:45 PM

Latest Report: Dec 20, 2014 at 4:20 PM


Visibility: N/A

Pressure: 30.12 "Hg

Humidity: 76%

Dew point: 37 °F

Location of LohmarLocation

Historic Weather in Lohmar — Graph

°F

Lohmar temperature yesterday

Maximum temperature yesterday: 55 °F (at 12:20 AM)
Minimum temperature yesterday: 41 °F (at 8:20 PM)
Average temperature yesterday: 49 °F

Past Weeks' High & Low Weather Summary

 TemperatureHumidityPressure
High55 °F (Dec 18, 5:20 PM)100% (Dec 7, 12:20 AM)30.39 "Hg (Dec 7, 12:20 AM)
Low30 °F (Dec 14, 10:50 PM)66% (Dec 7, 12:20 PM)29.45 "Hg (Dec 12, 5:20 PM)
Average41 °F87%29.98 "Hg
* Reported Dec 5 3:20 PM — Dec 20 3:50 PM, Lohmar, Weather by CustomWeather, © 2014

Note: Actual official high and low records may vary slightly from our data, if they occured in-between our weather recording intervals... More about our weather records

Advertising

Lohmar weather history for previous 24 hours

 ConditionsComfort  
Time TempWeatherWind HumidityBarometerVisibility
3:50 PM
Dec 20
45 °FScattered showers. Partly sunny.23 mph76%30.12 "HgN/A
3:20 PM45 °FScattered showers. Partly sunny.16 mph76%30.12 "HgN/A
2:50 PM45 °FSprinkles. Broken clouds.22 mph76%30.12 "HgN/A
2:20 PM45 °FSprinkles. Partly sunny.23 mph76%30.12 "HgN/A
1:20 PM45 °FPartly sunny.25 mph71%30.12 "HgN/A
12:50 PM45 °FPartly sunny.22 mph71%30.12 "HgN/A
12:20 PM45 °FPartly sunny.22 mph71%30.12 "HgN/A
11:50 AM45 °FPartly sunny.21 mph76%30.15 "HgN/A
11:20 AM43 °FPartly sunny.17 mph81%30.15 "HgN/A
10:50 AM43 °FSprinkles. Partly sunny.16 mph76%30.15 "HgN/A
10:20 AM43 °FPartly sunny.16 mph76%30.15 "HgN/A
9:50 AM43 °FPartly sunny.14 mph76%30.18 "HgN/A
9:20 AM41 °FPartly sunny.9 mph81%30.18 "HgN/A
8:50 AM39 °FPartly sunny.8 mph81%30.18 "HgN/A
8:20 AM39 °FPartly cloudy.8 mph81%30.18 "HgN/A
7:50 AM39 °FClear.10 mph81%30.18 "Hg10 mi
7:20 AM39 °FClear.9 mph81%30.18 "Hg10 mi
6:50 AM37 °FClear.9 mph87%30.18 "Hg10 mi
6:20 AM39 °FClear.10 mph81%30.18 "Hg10 mi
5:50 AM39 °FClear.12 mph81%30.18 "Hg10 mi
5:20 AM39 °FClear.12 mph81%30.18 "Hg10 mi
4:50 AM39 °FClear.13 mph81%30.18 "Hg10 mi
4:20 AM41 °FClear.13 mph81%30.18 "Hg10 mi
3:50 AM41 °FClear.13 mph81%30.18 "Hg10 mi
3:20 AM41 °FClear.13 mph81%30.18 "Hg10 mi
2:50 AM39 °FClear.12 mph87%30.18 "Hg10 mi
2:20 AM41 °FClear.12 mph81%30.18 "Hg10 mi
1:50 AM41 °FPassing clouds.9 mph81%30.15 "HgN/A
1:20 AM41 °FPassing clouds.9 mph81%30.15 "HgN/A
12:50 AM41 °FPassing clouds.8 mph81%30.15 "HgN/A
12:20 AM41 °FPassing clouds.10 mph81%30.15 "HgN/A
11:50 PM
Dec 19
41 °FPassing clouds.10 mph81%30.15 "HgN/A
11:20 PM41 °FClear.9 mph81%30.12 "Hg10 mi
10:50 PM41 °FClear.12 mph87%30.12 "Hg10 mi
10:20 PM41 °FClear.7 mph81%30.12 "Hg10 mi
9:50 PM41 °FClear.10 mph81%30.09 "Hg10 mi
9:20 PM41 °FClear.9 mph81%30.09 "Hg10 mi
8:50 PM41 °FClear.8 mph81%30.09 "Hg10 mi
8:20 PM41 °FClear.6 mph81%30.07 "Hg10 mi
7:50 PM43 °FPassing clouds.10 mph81%30.07 "HgN/A
7:20 PM43 °FPassing clouds.10 mph81%30.04 "HgN/A
6:50 PM43 °FPassing clouds.10 mph81%30.04 "HgN/A
6:20 PM45 °FPassing clouds.13 mph76%30.01 "HgN/A
5:50 PM45 °FClear.12 mph81%29.98 "Hg10 mi
5:20 PM46 °FPassing clouds.12 mph76%29.98 "HgN/A
Weather by CustomWeather, © 2014

See weather overviewHow to use our weather pages